Temperature
21 21 20 20 21 22 23 25 26 25 26 27 26 26 24 23 22 20 20 20 20 20 20 20 19 19 19 19 19 19 19 19 19 19 19 19 19 19 19 19 19 19 19 19 19 19 19 19 19
21 20 20 21 22 22 23 25 25 26 27 26 26 25 24 22 21 20 20 20 20 19 19 19 19 19 19 19 19 19 19 19 19 19 19 19 19 19 19 19 19 19 19 19 19 19 19 19 19
21 21 21 22 23 23 24 25 26 27 27 26 25 24 22 20 20 19 19 20 20 19 19 19 19 19 19 19 19 19 19 19 19 19 18 18 18 18 18 18 18 18 18 18 18 18 19 19 19
21 22 23 23 24 25 25 26 26 27 26 26 25 23 20 19 19 19 19 19 19 19 19 19 19 19 19 19 19 19 18 18 18 18 18 18 18 18 18 18 18 18 18 18 18 18 18 18 18
22 23 23 23 24 26 27 27 27 26 26 25 24 22 20 19 19 19 19 19 19 19 18 19 19 19 18 18 18 18 18 18 18 18 18 18 18 18 18 18 18 18 18 18 18 18 18 18 18
23 25 24 23 24 26 27 27 27 26 25 25 24 22 20 19 19 19 19 19 19 18 18 18 18 18 18 18 18 18 18 18 18 18 18 18 18 18 18 18 18 18 18 18 18 18 18 18 18
24 24 25 25 25 25 27 26 26 26 25 24 24 22 20 19 19 19 19 19 19 19 18 18 18 18 18 18 18 18 18 18 18 18 18 18 18 18 18 18 18 18 18 18 18 18 18 18 19
25 25 25 25 24 25 26 26 25 25 24 24 23 22 20 19 19 19 19 19 19 18 18 18 18 18 18 18 18 18 18 18 18 18 18 18 18 18 18 18 18 18 18 18 18 18 18 18 19
26 25 24 24 25 25 26 26 25 24 24 23 22 21 20 20 20 20 19 19 19 18 18 18 18 18 18 17 17 17 17 18 18 18 18 18 18 18 18 18 18 18 18 18 18 18 18 18 19
27 24 25 26 27 26 26 26 25 25 24 23 22 21 20 20 20 20 20 19 19 18 18 18 17 17 17 17 17 17 17 17 17 17 17 17 18 18 18 18 18 18 18 18 18 18 18 18 19
27 26 27 27 27 27 26 26 25 25 24 23 22 21 21 21 20 20 20 19 19 18 18 17 17 17 17 17 16 16 16 17 17 17 17 17 17 17 17 18 18 18 18 18 18 18 18 18 18
27 27 27 27 26 26 26 26 25 24 23 22 22 21 21 21 20 20 20 19 19 18 17 17 16 16 16 16 16 16 16 16 16 16 16 17 17 17 17 17 17 18 17 17 17 18 18 18 18
27 26 26 26 25 26 26 25 24 23 22 22 21 21 21 21 20 20 19 19 18 17 17 16 16 15 15 15 15 16 16 16 16 16 16 16 16 16 17 17 17 17 17 17 17 17 17 18 18
27 26 26 26 25 25 25 25 24 23 22 22 22 21 21 20 20 20 19 18 18 17 17 16 15 15 15 15 15 15 15 15 16 16 16 16 16 16 16 16 17 17 17 17 17 17 17 18 18
27 27 26 26 25 26 25 25 25 23 22 22 22 21 21 20 20 19 18 18 17 16 16 16 15 15 14 14 14 14 15 15 15 15 15 15 15 16 16 16 16 16 17 17 17 17 17 17 18
28 26 25 25 24 24 24 24 24 22 22 22 22 22 21 20 20 19 18 17 17 16 16 15 15 14 14 14 14 14 14 14 15 15 15 15 15 15 15 15 16 16 16 16 16 17 17 17 17
26 23 23 24 24 25 25 24 24 23 23 23 22 22 21 21 20 19 18 17 16 16 16 15 15 14 14 14 14 14 14 14 14 14 14 14 14 15 15 15 15 15 16 16 16 16 17 17 17
24 24 25 25 25 25 25 25 24 23 23 23 23 22 22 21 20 19 18 17 16 16 15 15 14 14 14 14 13 14 14 14 14 14 14 14 14 14 14 15 15 15 15 15 16 16 16 16 17
25 25 26 26 26 25 25 26 25 24 23 23 23 22 22 21 20 19 18 17 16 16 15 15 14 14 14 13 13 13 13 13 13 13 13 14 14 14 14 14 14 15 15 15 15 16 16 16 16
26 26 26 27 26 26 25 26 26 25 24 23 23 22 22 21 20 19 18 17 16 16 15 14 14 14 13 13 13 13 13 13 13 13 13 13 13 13 14 14 14 14 14 15 15 15 15 16 16
27 26 26 26 26 26 25 25 25 25 24 23 22 22 21 21 20 19 18 17 16 15 15 14 14 14 13 13 13 13 13 13 13 13 13 13 13 13 13 14 14 14 14 14 15 15 15 15 15
26 26 26 26 25 25 26 24 25 24 24 23 23 22 21 20 19 18 18 17 16 15 14 14 14 13 13 12 12 12 12 12 12 12 13 13 13 13 13 13 13 14 14 14 14 14 15 15 15
26 26 26 26 25 25 26 25 25 25 24 23 23 22 21 20 19 18 17 16 16 15 14 14 13 13 13 12 12 12 12 12 12 12 12 13 13 13 13 13 13 13 13 14 14 14 14 15 15
26 26 26 26 25 24 26 25 24 24 24 24 23 22 21 20 19 18 17 16 16 15 14 14 13 13 13 12 12 12 12 12 12 12 12 12 12 12 13 13 13 13 13 13 14 14 14 14 15
26 25 25 24 24 25 26 25 24 23 24 23 23 22 21 20 19 18 17 16 16 15 14 14 13 13 13 12 12 12 12 12 12 12 12 12 12 12 12 12 13 13 13 13 13 14 14 14 14
26 26 24 24 25 25 25 25 23 24 23 22 22 21 20 20 19 18 17 16 16 15 14 14 13 13 13 13 12 12 12 12 12 12 12 12 12 12 12 12 12 12 13 13 13 13 14 14 14
26 26 26 25 25 25 26 25 23 24 23 23 22 21 21 20 19 18 17 16 16 15 15 14 14 13 13 13 12 12 12 12 12 12 11 11 12 12 12 12 12 12 13 13 13 13 13 14 14
26 26 26 25 24 24 26 25 24 23 23 23 23 22 21 20 19 18 17 16 16 15 15 14 14 13 13 13 12 12 12 12 12 12 11 11 12 12 12 12 12 12 12 13 13 13 13 13 14
25 25 25 25 25 24 24 23 24 24 23 23 23 22 21 20 19 18 17 17 16 15 15 15 14 14 13 13 12 12 12 12 12 12 11 11 11 12 12 12 12 12 12 12 12 13 13 13 13
26 25 25 24 24 25 23 23 25 24 24 23 23 22 21 20 19 18 17 17 16 16 15 15 14 14 13 13 12 12 12 12 12 12 11 11 11 11 12 12 12 12 12 12 12 12 13 13 13
Wind_Speed
9 9 6 2 2 1 4 6 8 8 6 9 11 11 13 13 8 6 2 6 9 12 14 12 9 7 5 4 3 3 2 1 1 1 1 1 1 1 1 1 2 2 2 2 3 3 4 5 5
9 7 4 3 2 1 4 6 8 8 8 7 9 13 12 11 10 6 4 6 8 11 13 12 9 7 4 3 1 1 1 1 1 2 2 2 3 3 3 2 2 2 2 1 1 2 2 3 3
10 7 4 3 1 3 4 5 7 8 9 8 9 12 8 6 7 4 4 7 11 12 14 12 9 6 4 2 1 1 1 2 2 3 4 4 4 5 4 4 4 4 3 3 2 1 1 2 2
6 4 4 1 5 8 8 6 6 7 9 10 10 9 7 8 5 6 8 10 11 11 13 12 10 7 5 3 1 1 2 3 4 4 5 6 6 6 6 6 5 5 5 4 3 2 2 2 1
5 4 2 2 7 8 8 8 9 9 10 12 12 10 7 9 9 9 10 10 10 9 10 10 9 8 6 5 3 2 2 3 4 5 6 7 7 7 7 7 7 7 6 5 4 3 3 3 2
3 3 2 2 5 6 8 8 8 9 10 10 9 9 6 8 9 8 9 9 8 7 7 7 6 6 5 4 3 2 2 3 4 5 6 6 7 8 8 8 8 8 7 7 6 5 5 5 4
4 5 3 3 5 6 7 8 9 8 10 9 7 7 6 8 6 6 7 7 7 6 5 4 3 2 3 2 1 1 2 3 4 5 6 7 7 8 9 9 9 9 9 9 8 7 7 7 6
4 5 6 6 5 4 6 7 8 9 9 8 8 7 6 7 6 6 6 5 5 4 4 2 2 3 2 0 1 1 3 4 5 6 6 7 8 9 10 10 10 11 10 10 10 9 9 9 8
5 2 4 4 3 4 6 6 7 8 11 12 12 11 8 6 6 5 4 4 4 4 3 2 1 1 1 3 2 2 4 4 6 6 7 7 7 7 7 9 10 11 12 12 11 11 11 10 11
4 1 2 4 5 6 5 5 4 5 8 9 10 9 6 5 5 5 5 6 6 5 4 4 3 1 2 3 2 3 4 4 5 5 5 5 5 6 6 5 7 10 12 12 13 13 12 11 11
2 1 3 5 6 4 4 4 2 3 4 7 8 7 5 4 5 6 6 6 5 6 7 6 5 4 3 1 2 2 4 5 6 6 6 6 5 5 5 3 4 7 9 10 12 12 11 11 11
2 3 3 5 4 1 3 3 3 6 7 8 7 5 5 4 5 5 6 6 6 7 7 7 8 7 6 5 3 3 3 3 3 4 5 5 3 3 3 3 4 5 6 6 6 6 9 10 10
2 2 3 4 2 1 2 3 3 7 6 6 6 4 4 4 5 5 6 7 7 6 6 7 8 8 6 4 3 4 2 2 4 4 5 6 4 4 4 3 4 5 6 4 3 4 5 5 5
2 4 5 5 4 3 2 4 5 7 6 5 3 2 4 5 5 6 8 8 8 8 8 7 7 7 7 6 6 5 3 4 4 3 5 6 4 3 4 4 4 4 5 5 5 5 5 4 4
4 6 6 5 4 2 3 6 7 10 7 5 3 3 3 3 4 5 7 8 8 8 8 7 7 7 8 7 7 6 4 4 2 3 6 6 5 3 3 3 4 4 7 6 4 4 3 4 5
9 7 6 5 4 2 4 4 10 10 7 5 3 2 2 1 1 5 7 7 8 7 7 6 8 8 8 7 6 5 5 5 4 4 5 6 5 5 2 3 4 4 4 3 3 3 3 4 3
6 5 7 4 7 5 5 5 11 9 6 5 4 3 3 2 2 6 7 6 6 5 6 7 6 6 7 7 6 5 4 4 4 4 4 6 7 6 3 3 3 3 2 3 5 3 3 4 4
4 5 6 3 5 4 6 6 9 9 6 4 3 3 3 0 4 6 6 4 4 5 7 7 6 6 7 6 6 5 5 5 4 3 4 6 6 6 4 3 4 3 3 4 4 4 3 3 4
7 8 10 1 4 3 8 7 6 10 6 5 5 3 2 2 4 7 5 4 5 6 7 7 7 7 5 5 5 5 5 5 5 4 5 6 6 5 4 4 4 2 3 4 5 4 4 4 3
10 9 9 3 4 4 8 9 4 8 6 3 3 3 2 3 4 5 5 4 5 6 6 7 7 7 6 4 4 5 4 4 4 4 4 6 6 5 5 4 3 3 2 4 5 4 3 4 4
8 5 6 8 6 7 8 8 6 8 6 5 3 2 3 3 4 5 5 5 5 5 6 7 6 7 7 7 4 6 5 4 4 5 4 5 5 5 4 4 4 3 3 3 4 5 5 4 4
6 5 5 7 8 7 4 3 7 9 7 7 4 2 1 2 3 3 4 5 5 6 6 7 7 7 7 7 6 7 6 5 6 5 4 5 4 4 4 4 4 4 3 3 4 4 3 4 4
3 3 5 7 8 9 7 5 6 7 4 5 5 3 2 3 3 2 3 4 5 5 5 5 5 6 6 7 6 5 5 5 5 6 6 5 5 4 3 3 3 4 3 3 4 3 3 4 5
1 5 8 8 7 7 3 2 4 4 6 5 4 4 4 4 2 2 3 4 4 4 3 3 3 4 5 5 6 5 6 6 7 7 6 5 4 4 5 4 4 4 4 4 4 4 4 4 5
5 7 5 6 6 2 5 1 5 8 7 5 4 4 4 4 2 3 3 3 3 3 3 3 4 4 4 6 6 6 6 6 7 7 6 6 4 4 5 5 4 4 4 4 4 4 4 4 5
3 6 6 5 3 2 5 2 7 8 7 5 3 3 2 2 3 2 2 2 1 2 2 3 3 4 4 5 6 6 7 5 5 6 6 6 5 5 6 6 5 4 4 4 4 3 4 3 3
5 4 3 5 8 5 5 7 8 6 6 5 3 3 3 2 3 3 2 1 1 2 2 2 3 4 4 5 5 5 6 6 6 6 6 5 6 6 7 6 5 4 4 4 4 3 3 3 3
5 7 3 4 5 4 3 5 5 5 4 3 2 3 2 3 3 3 3 1 0 1 0 1 2 3 4 5 5 5 5 5 6 5 6 6 7 7 7 7 6 5 5 4 3 3 3 3 3
5 5 3 4 4 4 3 5 6 6 4 1 1 3 3 3 3 3 2 1 1 0 1 0 1 2 3 4 5 5 5 5 5 5 5 6 6 7 7 7 6 6 6 5 4 4 3 3 3
2 4 3 4 4 1 3 3 5 5 3 1 1 1 3 3 3 3 3 2 1 1 1 1 2 3 3 3 4 4 4 5 6 6 6 7 7 7 7 7 7 7 7 6 6 5 4 3 3
Wind_Direction
206 217 215 228 250 257 46 50 56 37 32 36 42 59 67 54 46 74 32 34 86 104 117 118 113 113 113 111 109 106 102 108 119 136 190 217 258 290 309 325 337 346 0 16 16 16 21 29 30
224 214 226 235 279 45 55 48 57 47 41 39 54 66 65 56 53 72 30 31 75 94 105 106 105 102 105 112 127 139 166 214 246 258 256 256 262 265 268 276 288 300 306 325 348 1 8 13 20
245 234 247 238 29 76 82 61 63 60 48 53 62 58 53 38 39 51 32 51 70 78 88 95 97 92 91 99 146 224 242 253 259 261 261 261 262 265 264 265 266 273 276 275 274 305 329 341 357
232 232 246 272 67 69 72 66 58 56 51 55 75 70 66 44 42 47 49 59 71 75 82 89 88 84 75 61 41 317 280 272 268 264 264 266 266 263 264 265 265 266 267 261 253 256 271 284 299
236 248 269 18 66 66 60 51 62 63 55 55 74 87 77 56 56 55 58 58 65 71 80 86 90 88 79 65 50 27 331 291 276 271 267 267 268 265 263 266 267 264 259 255 249 249 253 256 260
266 270 298 73 87 82 68 52 52 66 61 51 79 92 76 69 59 57 65 61 63 64 67 82 95 101 99 85 59 30 353 327 305 286 277 271 268 265 264 263 263 262 256 250 246 245 246 245 245
269 281 285 87 88 81 71 54 49 60 58 41 60 93 101 81 77 73 77 76 72 71 62 45 45 86 121 110 83 18 333 307 294 288 282 273 268 264 260 257 255 254 251 245 242 240 241 238 237
281 300 336 42 71 79 78 69 54 50 64 47 46 90 97 96 108 105 97 98 93 85 82 66 39 25 22 207 202 253 277 278 277 272 271 267 263 258 255 252 248 244 244 242 240 237 236 236 235
261 300 360 34 61 91 90 85 81 79 80 71 67 78 92 111 114 105 97 85 70 56 58 66 50 43 314 276 276 262 261 257 263 266 261 259 258 260 253 252 249 241 240 240 240 238 235 235 236
237 338 48 41 53 88 85 84 101 115 104 102 96 95 105 101 80 66 60 43 33 25 23 11 349 321 297 306 297 248 271 259 244 250 252 252 261 265 265 271 252 242 239 239 240 238 235 233 239
270 74 60 60 58 77 94 89 69 97 89 95 108 111 100 84 69 47 38 33 21 18 12 354 346 336 325 283 278 262 261 254 248 239 235 235 254 254 256 253 252 248 245 240 237 230 229 229 234
248 67 62 83 67 63 99 101 68 61 82 88 92 95 91 61 48 43 34 23 13 23 2 359 357 343 342 343 338 278 254 241 245 238 241 222 220 238 239 234 225 230 235 236 238 225 227 233 243
230 125 110 107 135 114 111 121 105 106 108 107 116 114 87 52 25 23 29 15 12 17 7 17 355 349 338 327 305 308 289 283 279 257 248 239 217 220 223 233 224 224 228 226 229 237 239 241 257
127 153 164 159 159 162 186 162 162 145 149 140 142 120 68 45 8 11 24 6 8 8 7 17 350 344 335 335 329 316 314 306 300 292 279 270 249 229 223 228 228 230 227 225 220 227 236 235 246
180 204 198 183 189 171 246 230 183 142 169 170 188 146 72 28 354 24 29 8 13 4 360 5 341 356 348 342 332 320 316 320 320 312 300 292 281 266 249 241 239 234 231 226 224 225 234 237 233
230 236 239 191 184 164 260 285 133 146 182 187 206 160 149 208 337 49 38 17 16 1 355 2 356 354 347 342 323 314 324 339 329 323 317 309 303 294 277 254 250 244 239 230 220 213 223 238 239
237 260 273 201 188 187 239 288 142 162 191 210 209 206 199 204 55 61 45 20 12 358 358 12 4 351 347 342 327 326 332 333 326 334 339 327 323 308 295 264 254 259 236 239 244 220 209 222 230
280 281 284 239 166 232 264 266 158 169 193 234 246 235 218 138 59 68 54 27 12 10 11 12 0 1 1 358 340 338 340 336 331 336 337 334 317 312 312 281 258 244 239 237 240 244 221 216 217
299 293 298 27 118 292 289 282 177 164 179 218 241 252 269 62 61 78 58 39 21 24 15 3 6 4 12 7 342 334 332 327 326 328 339 331 322 320 306 298 296 270 244 242 237 236 229 224 212
267 283 303 10 87 316 293 286 206 154 174 196 276 306 333 40 37 68 51 39 31 29 18 3 9 6 13 3 347 327 326 315 319 333 336 340 332 325 313 310 305 290 268 257 245 233 220 226 203
272 300 337 333 317 262 264 267 188 143 154 168 205 277 326 18 24 34 34 28 29 34 21 4 11 8 13 3 2 344 335 331 342 341 339 326 323 321 318 316 309 295 272 257 253 239 223 223 218
307 41 341 307 295 288 250 298 143 145 164 176 175 175 137 61 50 41 39 30 22 34 26 7 13 11 12 1 1 347 346 345 335 332 325 327 327 330 339 317 308 303 295 276 264 252 233 223 226
24 8 293 282 280 282 253 266 129 146 149 138 126 132 108 92 76 50 58 48 32 33 26 8 8 10 8 352 342 339 354 341 328 330 335 339 336 327 326 320 319 306 298 287 279 280 253 231 224
319 265 254 248 257 259 203 264 114 101 78 84 103 105 104 98 99 97 74 71 49 38 22 356 3 4 354 343 342 354 357 341 336 342 343 339 336 332 342 337 332 319 311 306 295 281 265 250 239
238 270 266 223 218 178 109 174 81 88 74 63 69 76 85 102 95 85 75 63 48 24 15 352 359 353 357 347 346 354 357 348 345 349 342 341 338 338 338 337 325 317 306 302 297 284 270 260 248
257 283 299 312 322 100 164 149 104 99 101 95 97 98 111 132 111 87 77 75 56 11 19 1 351 345 351 348 352 358 359 357 352 348 344 343 341 335 335 329 320 319 316 313 304 289 277 267 260
281 259 349 315 288 278 159 121 123 135 138 139 151 160 179 151 136 140 111 64 37 27 19 359 351 349 355 357 351 2 2 355 348 345 348 347 339 336 341 328 329 327 320 313 313 300 291 288 271
290 329 294 267 312 298 152 130 119 130 120 130 163 160 159 154 155 142 130 124 51 28 353 1 350 353 7 357 355 3 358 348 338 340 352 344 336 337 334 338 341 339 337 334 333 320 303 293 284
198 221 252 286 287 307 353 75 74 78 70 44 50 120 134 149 152 140 134 144 151 297 301 306 359 35 33 4 358 354 348 340 336 349 352 346 342 344 343 345 349 354 352 347 338 331 329 320 307
271 284 287 283 316 292 286 103 102 109 111 113 18 102 135 142 149 155 156 172 182 220 319 346 26 44 51 18 350 338 339 348 353 357 1 353 348 347 346 353 1 4 2 352 349 347 344 323 312
Height
1523 1523 1524 1526 1527 1528 1527 1519 1513 1514 1512 1513 1513 1514 1519 1524 1528 1538 1537 1535 1535 1534 1534 1535 1536 1537 1538 1539 1540 1541 1542 1543 1544 1545 1545 1546 1546 1546 1547 1547 1547 1547 1547 1547 1548 1548 1548 1548 1548
1523 1524 1526 1526 1528 1534 1531 1519 1517 1516 1515 1515 1515 1518 1522 1527 1531 1535 1536 1536 1536 1535 1535 1536 1537 1537 1538 1539 1540 1541 1542 1543 1543 1544 1545 1545 1546 1546 1546 1547 1547 1547 1547 1547 1547 1548 1548 1548 1548
1523 1525 1526 1524 1526 1530 1528 1518 1516 1516 1516 1516 1519 1522 1528 1533 1535 1536 1536 1536 1536 1536 1536 1536 1537 1537 1538 1539 1539 1540 1541 1542 1542 1543 1543 1544 1545 1545 1545 1546 1546 1546 1547 1547 1547 1547 1547 1548 1548
1524 1525 1524 1524 1525 1519 1517 1516 1516 1517 1517 1518 1520 1527 1534 1536 1537 1537 1536 1536 1536 1536 1536 1536 1537 1537 1537 1538 1538 1539 1540 1540 1541 1541 1542 1543 1543 1543 1544 1544 1545 1545 1546 1546 1546 1546 1547 1547 1547
1524 1523 1523 1527 1522 1517 1515 1516 1516 1519 1520 1521 1524 1531 1536 1538 1538 1537 1537 1537 1537 1537 1536 1536 1536 1536 1537 1537 1537 1538 1538 1538 1539 1540 1540 1541 1541 1542 1542 1543 1543 1544 1544 1545 1545 1545 1546 1546 1547
1525 1520 1527 1530 1524 1517 1517 1518 1519 1520 1522 1524 1526 1532 1538 1540 1538 1538 1537 1537 1537 1537 1537 1536 1536 1536 1536 1536 1536 1536 1536 1536 1537 1537 1538 1539 1539 1540 1540 1541 1541 1542 1542 1543 1544 1544 1544 1545 1545
1524 1521 1522 1521 1523 1520 1518 1520 1522 1523 1525 1527 1528 1533 1539 1540 1539 1539 1538 1538 1537 1537 1537 1536 1536 1535 1534 1534 1534 1534 1534 1534 1535 1535 1535 1536 1537 1537 1538 1538 1539 1540 1540 1541 1542 1542 1543 1543 1544
1521 1519 1521 1521 1525 1523 1520 1521 1524 1525 1528 1530 1530 1534 1538 1540 1540 1539 1539 1538 1538 1537 1536 1536 1535 1534 1533 1533 1532 1532 1531 1531 1531 1532 1532 1533 1534 1534 1535 1536 1536 1538 1538 1539 1540 1540 1541 1542 1542
1520 1522 1528 1523 1522 1521 1520 1522 1526 1528 1530 1533 1534 1537 1539 1540 1540 1540 1540 1539 1539 1538 1537 1536 1534 1533 1532 1531 1530 1529 1529 1528 1528 1528 1529 1530 1530 1531 1532 1533 1533 1535 1536 1537 1538 1538 1539 1540 1540
1516 1523 1524 1518 1517 1519 1520 1523 1525 1527 1530 1534 1536 1538 1540 1540 1540 1541 1540 1540 1539 1538 1537 1535 1534 1532 1531 1530 1528 1527 1526 1526 1525 1525 1526 1526 1527 1528 1529 1529 1530 1532 1533 1534 1535 1536 1537 1537 1538
1513 1516 1515 1516 1518 1520 1521 1524 1526 1527 1530 1533 1536 1538 1540 1540 1540 1541 1540 1540 1539 1538 1536 1535 1533 1531 1529 1528 1526 1525 1524 1523 1522 1522 1522 1523 1523 1524 1525 1526 1527 1528 1530 1531 1532 1533 1534 1535 1536
1513 1513 1514 1517 1520 1521 1522 1524 1526 1528 1533 1534 1536 1538 1539 1540 1540 1540 1540 1539 1539 1537 1535 1533 1531 1530 1528 1526 1524 1523 1522 1521 1520 1520 1519 1520 1519 1519 1521 1522 1523 1524 1526 1527 1529 1530 1531 1532 1533
1513 1515 1516 1519 1521 1522 1523 1525 1528 1531 1534 1535 1537 1538 1539 1540 1540 1540 1539 1539 1538 1536 1534 1532 1530 1528 1526 1525 1523 1522 1520 1519 1518 1517 1517 1517 1517 1517 1517 1518 1519 1520 1522 1523 1525 1526 1528 1529 1530
1513 1514 1516 1518 1521 1522 1524 1525 1529 1531 1534 1535 1537 1538 1538 1540 1540 1539 1538 1538 1537 1535 1533 1531 1529 1527 1525 1523 1521 1520 1519 1517 1516 1515 1514 1514 1514 1514 1514 1515 1515 1516 1518 1519 1521 1522 1524 1526 1527
1513 1514 1515 1517 1519 1521 1524 1524 1525 1529 1532 1534 1536 1537 1539 1539 1539 1538 1538 1537 1536 1534 1532 1530 1528 1525 1523 1521 1519 1517 1516 1515 1514 1513 1512 1511 1511 1511 1511 1511 1512 1513 1515 1516 1517 1518 1520 1522 1523
1510 1514 1520 1517 1519 1522 1526 1528 1524 1528 1531 1532 1534 1535 1537 1537 1538 1537 1537 1536 1535 1533 1531 1529 1526 1524 1521 1519 1517 1515 1514 1513 1512 1511 1510 1509 1508 1508 1508 1508 1509 1510 1511 1512 1514 1515 1516 1518 1520
1515 1525 1525 1520 1517 1519 1522 1523 1523 1527 1529 1530 1532 1533 1534 1535 1536 1535 1535 1535 1534 1532 1530 1528 1525 1523 1520 1517 1515 1514 1512 1511 1509 1508 1507 1506 1505 1505 1505 1505 1506 1506 1507 1508 1510 1511 1513 1514 1516
1523 1523 1520 1517 1516 1517 1519 1518 1520 1523 1526 1528 1530 1531 1532 1533 1534 1534 1534 1534 1533 1531 1529 1527 1524 1522 1519 1516 1514 1512 1510 1509 1507 1506 1505 1503 1503 1502 1502 1502 1503 1503 1504 1505 1506 1507 1509 1511 1512
1516 1517 1516 1512 1512 1516 1516 1514 1515 1519 1523 1526 1528 1529 1530 1531 1533 1533 1533 1533 1532 1530 1528 1526 1524 1521 1518 1515 1512 1510 1508 1507 1505 1504 1503 1501 1500 1500 1499 1499 1500 1500 1501 1501 1502 1504 1505 1507 1509
1513 1514 1513 1509 1511 1515 1515 1512 1510 1515 1520 1524 1526 1527 1528 1530 1532 1532 1532 1532 1531 1529 1527 1526 1523 1520 1517 1514 1512 1509 1508 1506 1504 1503 1501 1499 1498 1497 1497 1497 1497 1497 1497 1498 1499 1500 1501 1503 1505
1509 1512 1514 1515 1511 1510 1514 1514 1510 1512 1518 1522 1525 1527 1528 1529 1531 1531 1531 1531 1530 1528 1527 1525 1523 1520 1517 1514 1511 1508 1506 1505 1503 1501 1499 1498 1496 1496 1495 1494 1494 1494 1495 1495 1496 1497 1498 1499 1501
1513 1510 1512 1515 1519 1516 1512 1524 1514 1512 1516 1519 1522 1525 1527 1528 1530 1531 1530 1530 1529 1528 1526 1524 1522 1519 1516 1513 1511 1508 1506 1503 1502 1500 1498 1496 1495 1494 1493 1492 1492 1492 1492 1492 1493 1494 1495 1496 1497
1510 1511 1512 1513 1516 1518 1511 1518 1515 1511 1516 1517 1520 1523 1525 1527 1529 1529 1529 1529 1528 1527 1525 1523 1521 1519 1516 1513 1510 1508 1505 1503 1501 1499 1497 1495 1494 1493 1492 1491 1490 1490 1490 1490 1491 1491 1491 1492 1493
1509 1511 1511 1512 1516 1524 1511 1518 1520 1514 1515 1517 1519 1522 1524 1526 1528 1528 1528 1528 1527 1526 1524 1522 1520 1518 1515 1513 1510 1508 1505 1502 1500 1498 1496 1494 1493 1492 1491 1489 1489 1488 1488 1488 1488 1488 1488 1489 1490
1510 1516 1524 1526 1528 1520 1508 1515 1520 1514 1514 1517 1519 1522 1524 1525 1527 1527 1527 1527 1526 1525 1523 1522 1520 1518 1515 1513 1510 1508 1505 1502 1500 1498 1495 1493 1492 1491 1489 1488 1487 1486 1486 1485 1485 1485 1485 1486 1486
1508 1513 1527 1534 1525 1517 1511 1515 1517 1512 1515 1518 1520 1522 1523 1524 1525 1526 1526 1526 1525 1524 1523 1521 1519 1517 1515 1513 1510 1508 1506 1503 1500 1498 1496 1493 1492 1490 1488 1487 1486 1485 1484 1484 1483 1483 1483 1483 1483
1510 1509 1509 1520 1515 1518 1508 1510 1515 1512 1514 1517 1519 1521 1522 1523 1524 1525 1525 1525 1524 1523 1522 1521 1519 1517 1515 1513 1511 1508 1505 1503 1500 1498 1496 1493 1491 1489 1488 1486 1485 1484 1483 1482 1481 1481 1480 1480 1480
1509 1509 1512 1520 1525 1526 1513 1511 1516 1515 1514 1515 1516 1518 1520 1522 1523 1523 1524 1524 1523 1523 1521 1520 1518 1517 1515 1513 1511 1508 1506 1503 1501 1499 1496 1493 1491 1489 1487 1486 1484 1483 1482 1481 1480 1479 1478 1478 1478
1511 1512 1513 1515 1516 1529 1528 1526 1509 1511 1512 1514 1515 1517 1518 1520 1521 1522 1522 1522 1522 1522 1521 1520 1518 1516 1514 1512 1510 1508 1506 1504 1502 1499 1497 1494 1492 1490 1488 1486 1484 1482 1481 1479 1478 1477 1477 1476 1476
1506 1508 1512 1523 1519 1516 1525 1527 1508 1510 1512 1513 1514 1516 1517 1518 1520 1520 1521 1521 1521 1521 1520 1519 1518 1516 1514 1512 1510 1509 1506 1504 1502 1500 1497 1495 1492 1490 1488 1486 1484 1482 1480 1479 1477 1476 1475 1475 1474